Location: Kershaw
(34.5481°N, 80.5823°W)
Time: 17:42:01
(UTC+00:00)

Transit 2A - Pass Details

Date: 06 October 2022
Orbit: 598 x 959 km, 66.7° (Epoch: 06 December)

Event Time Altitude Azimuth Distance (km) Brightness Sun altitude
Rises 12:37:59 0° 334° (NNW) 3,014 8.7 14.7°
Reaches altitude 10° 12:40:12 10° 335° (NNW) 2,144 8.0 15.2°
Maximum altitude 12:45:05 82° 63° (ENE) 752 6.4 16.1°
Drops below altitude 10° 12:50:31 10° 152° (SSE) 2,370 9.4 17.2°
Sets 12:53:04 0° 153° (SSE) 3,357 10.1 17.7°
